This is the latest recevied weather packets stored in our database for station/object KB9VKQ-13. If no packets are shown the sender has not sent any weather packets the latest 1 day(s).
| Time | Temp. | Humidity | Pressure | Rain* | Wind** | Luminosity | Snow |
|---|---|---|---|---|---|---|---|
| 1836274567 | 22.22° C | - | 0 hPa | 0 mm | 0.45 m/s, 200° | - | - |
| 1836274417 | 22.22° C | - | 0 hPa | 0 mm | 0.89 m/s, 184° | - | - |
| 1836273967 | 22.22° C | - | 0 hPa | 0 mm | 0 m/s | - | - |
| 1778040641 | 7.78° C | - | 0 hPa | 0.25 mm | 0.89 m/s, 27° | - | - |
| 1778040011 | 7.78° C | - | 0 hPa | 0.51 mm | 0.45 m/s, 11° | - | - |
| 1778039411 | 7.78° C | - | 0 hPa | 0.76 mm | 1.34 m/s, 330° | - | - |
| 1778038811 | 7.78° C | - | 0 hPa | 1.02 mm | 0.45 m/s, 343° | - | - |
| 1778038211 | 7.78° C | - | 0 hPa | 1.27 mm | 0 m/s | - | - |
| 1778037611 | 7.78° C | - | 0 hPa | 1.27 mm | 1.34 m/s, 39° | - | - |
| 1778036981 | 7.78° C | - | 0 hPa | 1.52 mm | 1.34 m/s, 354° | - | - |
| 1778036381 | 7.78° C | - | 0 hPa | 1.27 mm | 1.34 m/s, 333° | - | - |
| 1778035751 | 7.78° C | - | 0 hPa | 1.27 mm | 2.24 m/s, 45° | - | - |
| 1778035151 | 7.78° C | - | 0 hPa | 1.27 mm | 0.89 m/s, 1° | - | - |
| 1778034521 | 7.78° C | - | 0 hPa | 1.27 mm | 1.79 m/s, 38° | - | - |
| 1778033891 | 7.78° C | - | 0 hPa | 1.27 mm | 1.79 m/s, 23° | - | - |
| 1778033291 | 7.78° C | - | 0 hPa | 1.52 mm | 2.68 m/s, 37° | - | - |
| 1778032691 | 7.78° C | - | 0 hPa | 2.03 mm | 1.79 m/s, 353° | - | - |
| 1778032061 | 7.78° C | - | 0 hPa | 2.79 mm | 2.68 m/s, 359° | - | - |
| 1778031461 | 7.78° C | - | 0 hPa | 4.06 mm | 3.13 m/s, 31° | - | - |
| 1778030861 | 7.78° C | - | 0 hPa | 4.83 mm | 2.68 m/s, 23° | - | - |
| 1778030261 | 8.33° C | - | 0 hPa | 4.57 mm | 3.13 m/s, 11° | - | - |
| 1778029631 | 8.89° C | - | 0 hPa | 4.06 mm | 2.68 m/s, 34° | - | - |
| 1778029001 | 8.89° C | - | 0 hPa | 3.81 mm | 2.68 m/s, 24° | - | - |
| 1778028401 | 8.89° C | - | 0 hPa | 2.79 mm | 1.34 m/s, 301° | - | - |
| 1778027771 | 9.44° C | - | 0 hPa | 1.02 mm | 3.58 m/s, 356° | - | - |
* Rain latest hour (hover to see other rain measurements)
** Current wind speed in m/s (hover to see current wind gust speed)